Powrót do katalogu

HULIANWANG DIGUI-111

AktywnyŁącznośćLEO
NORAD 66921·PAYLOAD·🇨🇳 China

Wystrzelony Dec 6, 2025 z Wenchang Space Launch Site

Loading…

Następne Przeloty (najbliższe 24 godziny)

TLE

ŚwieżeSource: Space-Track

Epoka: Sep 14, 2026, 05:07 UTC

1 66921U 25285G   26257.21353378 -.00000086  00000-0  81668-4 0  9998
2 66921  50.0114 186.6515 0000177 262.8981  97.1871 13.29328897 37904

Śledź HULIANWANG DIGUI-111 w czasie rzeczywistym z AllMySat

Download on the App Store